Weather History for Galveston, TX

Change the Weather History Date:

Thursday, May 1, 2014

  Actual Average Record
Temperature  
Mean Temperature 19 °C 23 °C  
Max Temperature 23 °C 26 °C 31 °C (1875)
Min Temperature 16 °C 21 °C 11 °C (1903)
Degree Days  
Heating Degree Days 0 0  
Month to date heating degree days 0 0  
Since 1 July heating degree days 1425 1009  
Cooling Degree Days 2 9  
Month to date cooling degree days 2 9  
Year to date cooling degree days 190 252  
Growing Degree Days 16 (Base 50)    
Moisture  
Dew Point 7 °C    
Average Humidity 48    
Maximum Humidity 65    
Minimum Humidity 31    
Precipitation  
Precipitation T mm 3.30 mm 8.66 mm (1974)
Month to date precipitation T 0.13  
Year to date precipitation 4.97 13.11  
Snow  
Snow 0.00 cm - - ()
Month to date snowfall 0.0  
Since 1 July snowfall T  
Snow Depth 0.00 cm    
Sea Level Pressure  
Sea Level Pressure 1020 hPa    
Wind  
Wind Speed 15 km/h (NNE)    
Max Wind Speed 32 km/h    
Max Gust Speed 37 km/h    
Visibility 16 kilometers    
Events Rain    
T = Trace of Precipitation, MM = Missing Value Source: NWS Daily Summary

Daily Weather History Graph

Daily Weather History Graph

Search for Another Location

Airport:

Trip Planner

Search our weather history database for the weather conditions in past years. The results will help you decide how hot, cold, wet, or windy it might be!

Date:

Astronomy

May. 01, 2014 Rise Set
Actual Time 6:37 AM CDT 7:55 PM CDT
Civil Twilight 6:12 AM CDT 8:20 PM CDT
Nautical Twilight 5:42 AM CDT 8:50 PM CDT
Astronomical Twilight 5:11 AM CDT 9:22 PM CDT
Moon 8:30 AM CDT (5/1) 10:24 PM CDT (5/1)
Length of Visible Light 14h 08m
Length of Day
13h 18m
Waxing Crescent, 7% of the Moon is Illuminated
May 1
Waxing Crescent
May 6
First Quarter
May 14
Full
May 21
Last Quarter
May 28
New

Hourly Weather History & Observations

Time (CDT) Temp. Dew Point Humidity Pressure Visibility Wind Dir Wind Speed Gust Speed Precip Events Conditions
12:52 AM 18.3 °C 8.9 °C 54% 1020.3 hPa 16.1 km North 25.9 km/h / 7.2 m/s - N/A   Clear
1:52 AM 17.8 °C 7.8 °C 52% 1020.3 hPa 16.1 km NNE 29.6 km/h / 8.2 m/s - N/A   Clear
2:52 AM 16.7 °C 8.3 °C 58% 1020.5 hPa 16.1 km NNE 20.4 km/h / 5.7 m/s - N/A   Clear
3:52 AM 16.7 °C 8.3 °C 58% 1020.5 hPa 16.1 km NNE 20.4 km/h / 5.7 m/s - N/A   Clear
4:52 AM 16.1 °C 8.9 °C 62% 1020.3 hPa 16.1 km NNE 24.1 km/h / 6.7 m/s - N/A   Clear
5:52 AM 15.6 °C 8.9 °C 64% 1020.2 hPa 16.1 km NNE 20.4 km/h / 5.7 m/s - N/A   Clear
6:52 AM 15.6 °C 8.9 °C 64% 1020.3 hPa 16.1 km NE 20.4 km/h / 5.7 m/s - N/A   Clear
7:52 AM 17.2 °C 8.9 °C 58% 1020.7 hPa 16.1 km NNE 20.4 km/h / 5.7 m/s - N/A   Clear
8:52 AM 18.9 °C 7.2 °C 47% 1021.5 hPa 16.1 km NNE 18.5 km/h / 5.1 m/s - N/A   Clear
9:52 AM 20.6 °C 6.1 °C 39% 1021.1 hPa 16.1 km NNE 24.1 km/h / 6.7 m/s - N/A   Clear
10:52 AM 21.1 °C 2.8 °C 30% 1021.5 hPa 16.1 km NNE 22.2 km/h / 6.2 m/s - N/A   Clear
11:52 AM 21.7 °C 5.6 °C 35% 1020.8 hPa 16.1 km NE 16.7 km/h / 4.6 m/s - N/A   Clear
12:52 PM 23.0 °C 7.0 °C 36% 1020.2 hPa 16.1 km NNW 24.1 km/h / 6.7 m/s - N/A   Clear
1:52 PM 21.1 °C 5.6 °C 36% 1019.8 hPa 16.1 km NNW 16.7 km/h / 4.6 m/s - N/A   Clear
2:52 PM 20.0 °C 5.0 °C 37% 1019.4 hPa 16.1 km North 9.3 km/h / 2.6 m/s - 0.0 mm   Overcast
3:52 PM 18.9 °C 6.7 °C 45% 1018.4 hPa 16.1 km ENE 9.3 km/h / 2.6 m/s - 0.0 mm Rain Light Rain
4:52 PM 20.0 °C 6.1 °C 40% 1018.4 hPa 16.1 km East 5.6 km/h / 1.5 m/s - 0.0 mm   Overcast
5:52 PM 20.0 °C 5.0 °C 37% 1017.2 hPa 16.1 km NE 11.1 km/h / 3.1 m/s - N/A   Clear
6:52 PM 19.4 °C 5.6 °C 40% 1016.9 hPa 16.1 km ENE 9.3 km/h / 2.6 m/s - N/A   Mostly Cloudy
7:52 PM 19.4 °C 5.6 °C 40% 1017.4 hPa 16.1 km ESE 5.6 km/h / 1.5 m/s - N/A   Overcast
8:52 PM 19.4 °C 6.1 °C 42% 1017.8 hPa 16.1 km ENE 5.6 km/h / 1.5 m/s - N/A   Mostly Cloudy
9:52 PM 19.4 °C 6.7 °C 44% 1018.2 hPa 16.1 km Calm Calm - N/A   Overcast
10:52 PM 18.9 °C 8.3 °C 50% 1018.4 hPa 16.1 km North 5.6 km/h / 1.5 m/s - N/A   Partly Cloudy
11:52 PM 16.7 °C 10.0 °C 65% 1018.3 hPa 16.1 km West 5.6 km/h / 1.5 m/s - N/A   Clear